Retour au catalogue

COSMOS 2068

ActifNavigationLEO
NORAD 20553·PAYLOAD·🇷🇺 Russia

Lancé Apr 6, 1990 depuis Plesetsk Cosmodrome

Loading…

Prochains Passages (prochaines 24 heures)

TLE

FraisSource: Space-Track

Époque: Sep 14, 2026, 14:09 UTC

1 20553U 90029E   26257.59026920 -.00000005  00000-0  65950-4 0  9995
2 20553  73.9821 305.5108 0030341  79.8610 353.6892 12.56275391671204

Suivez COSMOS 2068 en temps réel avec AllMySat

Download on the App Store